N750GK KBCT-MMCZ

Flight info

Callsign N750GK
Flight time 1h 22m
Altitude 36000
Route MYZNR3 WELLY SWAGS LULLS CANOA WALKY EMOSA
Aircraft C750/M-VGDW/C

Departure

Time 2026-05-04 19:32
Airport Boca Raton Airport (KBCT)

Arrival

Time 2026-05-04 20:54
Airport Cozumel International Airport (MMCZ)
Time Latitude Longitude Altitude Speed Heading
2026-05-04 19:22 26.37757 -80.11079 23 ft 0 kts 46°
2026-05-04 19:27 26.37761 -80.11067 22 ft 2 kts 96°
2026-05-04 19:28 26.37752 -80.11061 22 ft 1 kts 162°
2026-05-04 19:28 26.37730 -80.11060 21 ft 4 kts 184°
2026-05-04 19:28 26.37719 -80.11061 21 ft 0 kts 182°
2026-05-04 19:29 26.37718 -80.11060 21 ft 0 kts 180°
2026-05-04 19:29 26.37698 -80.11054 21 ft 8 kts 172°
2026-05-04 19:29 26.37641 -80.11098 22 ft 12 kts 224°
2026-05-04 19:30 26.37559 -80.11188 21 ft 19 kts 225°
2026-05-04 19:30 26.37469 -80.11285 23 ft 17 kts 224°
2026-05-04 19:30 26.37386 -80.11375 24 ft 16 kts 224°
2026-05-04 19:30 26.37321 -80.11445 22 ft 10 kts 224°
2026-05-04 19:31 26.37275 -80.11469 24 ft 8 kts 156°
2026-05-04 19:31 26.37258 -80.11415 22 ft 8 kts 62°
2026-05-04 19:31 26.37352 -80.11311 22 ft 61 kts 44°
2026-05-04 19:31 26.37901 -80.10719 109 ft 135 kts 44°
2026-05-04 19:32 26.38592 -80.09956 799 ft 144 kts 41°
2026-05-04 19:32 26.39434 -80.09209 1550 ft 165 kts 40°
2026-05-04 19:32 26.40447 -80.08422 2268 ft 196 kts 23°
2026-05-04 19:32 26.41896 -80.08371 3049 ft 224 kts 352°
2026-05-04 19:33 26.43340 -80.09301 3729 ft 259 kts 320°
2026-05-04 19:33 26.44467 -80.10882 4469 ft 263 kts 310°
2026-05-04 19:33 26.45171 -80.11985 5009 ft 264 kts 309°
2026-05-04 19:33 26.46294 -80.13616 5831 ft 263 kts 310°
2026-05-04 19:34 26.47840 -80.15727 6828 ft 264 kts 308°
2026-05-04 19:34 26.49009 -80.17349 7555 ft 271 kts 307°
2026-05-04 19:34 26.49800 -80.18460 8067 ft 267 kts 306°
2026-05-04 19:34 26.50945 -80.20074 8782 ft 268 kts 305°
2026-05-04 19:35 26.52106 -80.21710 9543 ft 270 kts 305°
2026-05-04 19:35 26.53208 -80.23434 10040 ft 276 kts 298°
2026-05-04 19:35 26.54160 -80.25306 10041 ft 277 kts 296°
2026-05-04 19:35 26.55104 -80.27186 10043 ft 277 kts 297°
2026-05-04 19:36 26.56073 -80.29041 10025 ft 276 kts 298°
2026-05-04 19:36 26.57056 -80.30883 10043 ft 276 kts 297°
2026-05-04 19:36 26.57954 -80.32769 10031 ft 274 kts 290°
2026-05-04 19:36 26.58646 -80.34760 10059 ft 282 kts 288°
2026-05-04 19:37 26.59385 -80.36887 10066 ft 305 kts 289°
2026-05-04 19:37 26.60187 -80.39097 10061 ft 309 kts 290°
2026-05-04 19:37 26.61002 -80.41336 10064 ft 312 kts 289°
2026-05-04 19:37 26.61818 -80.43674 10169 ft 333 kts 289°
2026-05-04 19:38 26.62642 -80.46090 11045 ft 331 kts 289°
2026-05-04 19:38 26.63314 -80.48556 11705 ft 334 kts 277°
2026-05-04 19:38 26.63327 -80.51142 12496 ft 333 kts 265°
2026-05-04 19:38 26.63123 -80.53723 13272 ft 335 kts 264°
2026-05-04 19:39 26.62915 -80.56335 13962 ft 339 kts 265°
2026-05-04 19:39 26.62714 -80.58965 14673 ft 341 kts 265°
2026-05-04 19:39 26.62516 -80.61618 15368 ft 344 kts 265°
2026-05-04 19:39 26.62333 -80.64294 16035 ft 346 kts 265°
2026-05-04 19:40 26.62156 -80.66986 16733 ft 348 kts 265°
2026-05-04 19:40 26.61973 -80.69661 17418 ft 351 kts 265°
2026-05-04 19:40 26.61662 -80.72381 18083 ft 355 kts 258°
2026-05-04 19:40 26.60939 -80.75026 18752 ft 358 kts 250°
2026-05-04 19:41 26.59828 -80.77535 19395 ft 363 kts 242°
2026-05-04 19:41 26.58333 -80.79841 20040 ft 370 kts 233°
2026-05-04 19:41 26.56478 -80.81866 20682 ft 377 kts 224°
2026-05-04 19:41 26.54304 -80.83566 21330 ft 384 kts 217°
2026-05-04 19:42 26.52049 -80.85185 21960 ft 388 kts 217°
2026-05-04 19:42 26.49778 -80.86840 22601 ft 391 kts 218°
2026-05-04 19:42 26.47483 -80.88510 23242 ft 395 kts 218°
2026-05-04 19:42 26.45160 -80.90187 23827 ft 400 kts 217°
2026-05-04 19:43 26.42816 -80.91877 24362 ft 403 kts 218°
2026-05-04 19:43 26.40450 -80.93589 24902 ft 406 kts 218°
2026-05-04 19:43 26.38074 -80.95309 25461 ft 409 kts 218°
2026-05-04 19:43 26.35672 -80.97043 26009 ft 412 kts 218°
2026-05-04 19:44 26.33251 -80.98790 26548 ft 416 kts 218°
2026-05-04 19:44 26.30845 -81.00526 27086 ft 418 kts 219°
2026-05-04 19:44 26.28392 -81.02296 27620 ft 422 kts 219°
2026-05-04 19:44 26.25919 -81.04078 28083 ft 426 kts 219°
2026-05-04 19:45 26.23421 -81.05879 28618 ft 429 kts 219°
2026-05-04 19:45 26.20906 -81.07688 29126 ft 432 kts 219°
2026-05-04 19:45 26.18365 -81.09500 29602 ft 437 kts 218°
2026-05-04 19:45 26.15635 -81.11068 30065 ft 445 kts 211°
2026-05-04 19:46 26.12804 -81.12503 30481 ft 448 kts 211°
2026-05-04 19:46 26.09975 -81.13968 30906 ft 450 kts 211°
2026-05-04 19:46 26.07142 -81.15441 31488 ft 448 kts 211°
2026-05-04 19:46 26.04327 -81.16884 32142 ft 445 kts 211°
2026-05-04 19:47 26.01520 -81.18318 32766 ft 442 kts 211°
2026-05-04 19:47 25.98735 -81.19751 33354 ft 440 kts 211°
2026-05-04 19:47 25.95962 -81.21181 33956 ft 438 kts 211°
2026-05-04 19:47 25.93200 -81.22598 34553 ft 436 kts 211°
2026-05-04 19:48 25.90460 -81.23999 35163 ft 432 kts 211°
2026-05-04 19:48 25.87778 -81.25374 35770 ft 429 kts 211°
2026-05-04 19:48 25.85063 -81.26771 36006 ft 435 kts 212°
2026-05-04 19:48 25.82273 -81.28209 36004 ft 447 kts 211°
2026-05-04 19:49 25.79424 -81.29665 36017 ft 454 kts 211°
2026-05-04 19:49 25.73671 -81.32597 36017 ft 456 kts 211°
2026-05-04 19:50 25.67903 -81.35550 36003 ft 456 kts 211°
2026-05-04 19:50 25.62136 -81.38491 36001 ft 456 kts 211°
2026-05-04 19:51 25.56355 -81.41440 36000 ft 456 kts 211°
2026-05-04 19:51 25.50612 -81.44365 36000 ft 457 kts 211°
2026-05-04 19:52 25.44836 -81.47304 36001 ft 456 kts 211°
2026-05-04 19:52 25.39044 -81.50251 35973 ft 464 kts 211°
2026-05-04 19:53 25.33085 -81.53278 36008 ft 477 kts 211°
2026-05-04 19:53 25.26989 -81.56367 36007 ft 486 kts 211°
2026-05-04 19:54 25.20844 -81.59480 36007 ft 491 kts 211°
2026-05-04 19:54 25.14624 -81.62627 36003 ft 492 kts 211°
2026-05-04 19:55 25.08401 -81.65772 35983 ft 492 kts 211°
2026-05-04 19:55 25.02162 -81.68923 35996 ft 493 kts 211°
2026-05-04 19:56 24.95924 -81.72069 35994 ft 493 kts 211°
2026-05-04 19:56 24.89722 -81.75194 36001 ft 493 kts 211°
2026-05-04 19:57 24.83482 -81.78333 36006 ft 493 kts 211°
2026-05-04 19:57 24.77228 -81.81478 35989 ft 492 kts 211°
2026-05-04 19:58 24.71033 -81.84588 36004 ft 492 kts 211°
2026-05-04 19:58 24.64787 -81.87721 36005 ft 493 kts 211°
2026-05-04 19:59 24.58544 -81.90849 36024 ft 493 kts 211°
2026-05-04 19:59 24.52624 -81.94493 36014 ft 483 kts 221°
2026-05-04 20:00 24.47740 -81.99428 36019 ft 473 kts 233°
2026-05-04 20:00 24.44072 -82.05351 36001 ft 467 kts 245°
2026-05-04 20:01 24.41271 -82.11727 36014 ft 467 kts 246°
2026-05-04 20:01 24.38440 -82.18151 36012 ft 467 kts 246°
2026-05-04 20:02 24.35629 -82.24582 36006 ft 467 kts 246°
2026-05-04 20:02 24.32802 -82.31000 36010 ft 467 kts 246°
2026-05-04 20:03 24.29998 -82.37381 36010 ft 467 kts 246°
2026-05-04 20:03 24.27167 -82.43801 36003 ft 469 kts 247°
2026-05-04 20:04 24.24323 -82.50247 36008 ft 469 kts 247°
2026-05-04 20:04 24.21478 -82.56684 36005 ft 469 kts 246°
2026-05-04 20:05 24.18658 -82.63055 35997 ft 468 kts 247°
2026-05-04 20:05 24.15815 -82.69473 35998 ft 468 kts 247°
2026-05-04 20:06 24.12960 -82.75905 35996 ft 468 kts 246°
2026-05-04 20:06 24.10123 -82.82291 35999 ft 470 kts 247°
2026-05-04 20:07 24.07250 -82.88746 35997 ft 472 kts 247°
2026-05-04 20:07 24.04372 -82.95204 35996 ft 472 kts 247°
2026-05-04 20:08 24.01491 -83.01662 36000 ft 472 kts 247°
2026-05-04 20:08 23.98089 -83.07832 35998 ft 477 kts 237°
2026-05-04 20:09 23.94123 -83.13667 36006 ft 478 kts 238°
2026-05-04 20:09 23.90195 -83.19480 35993 ft 479 kts 238°
2026-05-04 20:10 23.86215 -83.25328 35997 ft 480 kts 238°
2026-05-04 20:10 23.82230 -83.31199 35996 ft 480 kts 238°
2026-05-04 20:11 23.78243 -83.37054 35997 ft 480 kts 238°
2026-05-04 20:11 23.74279 -83.42875 35994 ft 480 kts 238°
2026-05-04 20:12 23.70288 -83.48725 35992 ft 480 kts 238°
2026-05-04 20:12 23.66285 -83.54587 35995 ft 481 kts 238°
2026-05-04 20:13 23.62273 -83.60458 35997 ft 483 kts 238°
2026-05-04 20:13 23.58289 -83.66275 35992 ft 481 kts 238°
2026-05-04 20:14 23.54271 -83.72140 35993 ft 482 kts 237°
2026-05-04 20:14 23.50253 -83.77997 35993 ft 482 kts 237°
2026-05-04 20:15 23.46230 -83.83854 35992 ft 483 kts 237°
2026-05-04 20:15 23.42204 -83.89709 35992 ft 483 kts 237°
2026-05-04 20:16 23.38186 -83.95546 35988 ft 485 kts 238°
2026-05-04 20:16 23.34127 -84.01435 35988 ft 486 kts 238°
2026-05-04 20:17 23.30065 -84.07322 35989 ft 485 kts 238°
2026-05-04 20:17 23.26002 -84.13204 35987 ft 486 kts 238°
2026-05-04 20:18 23.21966 -84.19040 35989 ft 486 kts 237°
2026-05-04 20:18 23.17896 -84.24917 35992 ft 486 kts 237°
2026-05-04 20:19 23.13820 -84.30798 35987 ft 487 kts 238°
2026-05-04 20:19 23.09718 -84.36709 35985 ft 490 kts 238°
2026-05-04 20:20 23.05633 -84.42589 35985 ft 491 kts 238°
2026-05-04 20:20 23.01514 -84.48510 35988 ft 491 kts 238°
2026-05-04 20:21 22.97412 -84.54400 35985 ft 489 kts 237°
2026-05-04 20:21 22.91247 -84.63241 35985 ft 489 kts 237°
2026-05-04 20:22 22.87159 -84.69096 35980 ft 491 kts 238°
2026-05-04 20:22 22.83015 -84.75023 35980 ft 494 kts 238°
2026-05-04 20:23 22.78860 -84.80960 35980 ft 494 kts 238°
2026-05-04 20:23 22.74695 -84.86903 35980 ft 495 kts 238°
2026-05-04 20:24 22.70532 -84.92837 35983 ft 495 kts 238°
2026-05-04 20:24 22.66409 -84.98707 35982 ft 492 kts 237°
2026-05-04 20:25 22.62256 -85.04615 35978 ft 493 kts 237°
2026-05-04 20:25 22.58083 -85.10543 35976 ft 496 kts 238°
2026-05-04 20:26 22.53895 -85.16487 35977 ft 497 kts 238°
2026-05-04 20:26 22.50409 -85.21428 35977 ft 497 kts 238°
2026-05-04 20:27 22.46213 -85.27370 35978 ft 497 kts 238°
2026-05-04 20:27 22.42029 -85.33288 35980 ft 497 kts 238°
2026-05-04 20:28 22.37828 -85.39225 35984 ft 494 kts 237°
2026-05-04 20:28 22.33638 -85.45139 35980 ft 497 kts 238°
2026-05-04 20:29 22.29425 -85.51078 35977 ft 499 kts 238°
2026-05-04 20:29 22.25117 -85.56971 35971 ft 503 kts 233°
2026-05-04 20:30 22.19724 -85.61910 35983 ft 514 kts 221°
2026-05-04 20:30 22.13909 -85.66398 35991 ft 514 kts 221°
2026-05-04 20:31 22.08092 -85.70906 35990 ft 514 kts 221°
2026-05-04 20:31 22.02285 -85.75378 35977 ft 513 kts 221°
2026-05-04 20:32 21.96489 -85.79858 35977 ft 513 kts 221°
2026-05-04 20:32 21.90724 -85.84294 35973 ft 512 kts 221°
2026-05-04 20:33 21.87863 -85.86489 35395 ft 486 kts 221°
2026-05-04 20:33 21.85195 -85.88537 34775 ft 469 kts 221°
2026-05-04 20:33 21.82539 -85.90552 34159 ft 471 kts 219°
2026-05-04 20:33 21.79606 -85.92268 33507 ft 483 kts 212°
2026-05-04 20:34 21.76597 -85.93885 32873 ft 484 kts 212°
2026-05-04 20:34 21.73592 -85.95538 32221 ft 484 kts 212°
2026-05-04 20:34 21.70599 -85.97190 31596 ft 485 kts 212°
2026-05-04 20:34 21.67581 -85.98833 30954 ft 488 kts 212°
2026-05-04 20:35 21.64534 -86.00481 30307 ft 490 kts 212°
2026-05-04 20:35 21.61507 -86.02127 29619 ft 484 kts 212°
2026-05-04 20:35 21.58525 -86.03756 28982 ft 477 kts 212°
2026-05-04 20:35 21.55583 -86.05361 28355 ft 471 kts 212°
2026-05-04 20:36 21.52671 -86.06943 27736 ft 466 kts 212°
2026-05-04 20:36 21.49792 -86.08507 27124 ft 460 kts 212°
2026-05-04 20:36 21.46953 -86.10051 26520 ft 455 kts 212°
2026-05-04 20:36 21.44182 -86.11558 25925 ft 449 kts 212°
2026-05-04 20:37 21.41408 -86.13064 25341 ft 444 kts 212°
2026-05-04 20:37 21.38667 -86.14552 24758 ft 439 kts 212°
2026-05-04 20:37 21.35959 -86.16022 24181 ft 434 kts 212°
2026-05-04 20:37 21.33280 -86.17475 23617 ft 429 kts 212°
2026-05-04 20:38 21.30637 -86.18908 22995 ft 423 kts 211°
2026-05-04 20:38 21.28018 -86.20329 22441 ft 420 kts 211°
2026-05-04 20:38 21.25421 -86.21737 21888 ft 416 kts 211°
2026-05-04 20:38 21.22846 -86.23130 21341 ft 413 kts 211°
2026-05-04 20:39 21.20289 -86.24515 20798 ft 409 kts 211°
2026-05-04 20:39 21.17757 -86.25885 20256 ft 405 kts 211°
2026-05-04 20:39 21.15249 -86.27242 19727 ft 402 kts 210°
2026-05-04 20:39 21.12766 -86.28585 19199 ft 398 kts 210°
2026-05-04 20:40 21.10333 -86.29900 18680 ft 395 kts 210°
2026-05-04 20:40 21.07889 -86.31220 18143 ft 392 kts 210°
2026-05-04 20:40 21.05465 -86.32530 17597 ft 388 kts 210°
2026-05-04 20:40 21.03060 -86.33828 17095 ft 385 kts 209°
2026-05-04 20:41 21.00669 -86.35119 16587 ft 383 kts 209°
2026-05-04 20:41 20.98299 -86.36398 16084 ft 380 kts 209°
2026-05-04 20:41 20.95945 -86.37668 15584 ft 377 kts 209°
2026-05-04 20:41 20.93608 -86.38927 15088 ft 374 kts 209°
2026-05-04 20:42 20.91318 -86.40162 14607 ft 372 kts 209°
2026-05-04 20:42 20.89016 -86.41402 14128 ft 370 kts 209°
2026-05-04 20:42 20.86728 -86.42635 13626 ft 367 kts 209°
2026-05-04 20:42 20.84456 -86.43858 13134 ft 365 kts 208°
2026-05-04 20:43 20.82195 -86.45075 12660 ft 362 kts 208°
2026-05-04 20:43 20.79953 -86.46282 12188 ft 360 kts 208°
2026-05-04 20:43 20.77716 -86.47485 11718 ft 358 kts 208°
2026-05-04 20:43 20.75487 -86.48683 11250 ft 355 kts 208°
2026-05-04 20:44 20.73356 -86.49827 10819 ft 331 kts 208°
2026-05-04 20:44 20.71364 -86.50896 10423 ft 311 kts 208°
2026-05-04 20:44 20.69478 -86.51911 10045 ft 298 kts 208°
2026-05-04 20:44 20.67636 -86.52902 9650 ft 293 kts 208°
2026-05-04 20:45 20.65820 -86.53877 9265 ft 290 kts 208°
2026-05-04 20:45 20.64039 -86.54832 8893 ft 289 kts 207°
2026-05-04 20:45 20.62247 -86.55794 8514 ft 287 kts 207°
2026-05-04 20:45 20.60467 -86.56750 8131 ft 286 kts 207°
2026-05-04 20:46 20.58694 -86.57700 7721 ft 283 kts 208°
2026-05-04 20:46 20.56933 -86.58644 7342 ft 281 kts 208°
2026-05-04 20:46 20.55196 -86.59576 6974 ft 279 kts 207°
2026-05-04 20:46 20.53463 -86.60505 6607 ft 278 kts 207°
2026-05-04 20:47 20.51757 -86.61418 6235 ft 276 kts 207°
2026-05-04 20:47 20.50040 -86.62338 5864 ft 275 kts 207°
2026-05-04 20:47 20.48334 -86.63252 5497 ft 274 kts 207°
2026-05-04 20:47 20.46627 -86.64166 5141 ft 273 kts 207°
2026-05-04 20:48 20.44934 -86.65072 4783 ft 271 kts 207°
2026-05-04 20:48 20.43263 -86.65992 4409 ft 269 kts 209°
2026-05-04 20:48 20.41959 -86.67390 3999 ft 266 kts 238°
2026-05-04 20:48 20.41407 -86.69216 3677 ft 251 kts 264°
2026-05-04 20:49 20.41614 -86.70961 3442 ft 231 kts 288°
2026-05-04 20:49 20.42272 -86.72486 3258 ft 217 kts 295°
2026-05-04 20:49 20.42893 -86.73848 3042 ft 198 kts 295°
2026-05-04 20:49 20.43473 -86.75139 2839 ft 189 kts 294°
2026-05-04 20:50 20.44037 -86.76387 2646 ft 185 kts 295°
2026-05-04 20:50 20.44593 -86.77615 2453 ft 183 kts 295°
2026-05-04 20:50 20.45139 -86.78815 2259 ft 169 kts 295°
2026-05-04 20:50 20.45610 -86.79854 2071 ft 144 kts 295°
2026-05-04 20:51 20.46025 -86.80774 1923 ft 132 kts 295°
2026-05-04 20:51 20.46418 -86.81645 1797 ft 132 kts 296°
2026-05-04 20:51 20.46818 -86.82524 1699 ft 132 kts 296°
2026-05-04 20:51 20.47224 -86.83419 1588 ft 138 kts 296°
2026-05-04 20:52 20.47648 -86.84355 1423 ft 140 kts 296°
2026-05-04 20:52 20.48064 -86.85276 1245 ft 136 kts 296°
2026-05-04 20:52 20.48472 -86.86177 1070 ft 135 kts 296°
2026-05-04 20:52 20.48862 -86.87084 902 ft 134 kts 295°
2026-05-04 20:53 20.49254 -86.87980 761 ft 133 kts 297°
2026-05-04 20:53 20.49677 -86.88850 633 ft 131 kts 298°
2026-05-04 20:53 20.50085 -86.89717 476 ft 130 kts 296°
2026-05-04 20:53 20.50472 -86.90590 293 ft 130 kts 295°
2026-05-04 20:54 20.50855 -86.91447 99 ft 129 kts 295°
2026-05-04 20:54 20.51225 -86.92269 14 ft 104 kts 296°
2026-05-04 20:54 20.51422 -86.92742 17 ft 32 kts 287°
2026-05-04 20:54 20.51432 -86.92787 16 ft 1 kts 226°
2026-05-04 20:55 20.51400 -86.92799 16 ft 11 kts 204°
2026-05-04 20:55 20.51327 -86.92837 15 ft 12 kts 207°
2026-05-04 20:55 20.51269 -86.92868 15 ft 8 kts 205°
2026-05-04 20:55 20.51236 -86.92910 15 ft 8 kts 275°
2026-05-04 20:56 20.51251 -86.92957 15 ft 4 kts 269°
2026-05-04 20:56 20.51230 -86.92972 15 ft 5 kts 206°
2026-05-04 20:56 20.51204 -86.92986 15 ft 0 kts 207°